QPF
0.04 0.06 0.05 0.03 0.03 0.03 0.02 0.02 0.02 0.03 0.03 0.05 0.05 0.05 0.06 0.06 0.05 0.04 0.04 0.05 0.08 0.11 0.14 0.12 0.16 0.13 0.08 0.05 0.04 0.04 0.06 0.07 0.08 0.09 0.07 0.05 0.03 0.03 0.02 0.02 0.02 0.02 0.02
0.04 0.06 0.07 0.05 0.03 0.02 0.02 0.02 0.02 0.02 0.03 0.04 0.05 0.06 0.06 0.07 0.06 0.05 0.04 0.05 0.07 0.11 0.14 0.12 0.12 0.14 0.10 0.07 0.04 0.03 0.05 0.07 0.07 0.06 0.05 0.04 0.03 0.02 0.03 0.03 0.03 0.03 0.02
0.04 0.06 0.08 0.06 0.04 0.02 0.02 0.02 0.02 0.02 0.02 0.03 0.05 0.06 0.07 0.07 0.06 0.05 0.05 0.07 0.08 0.10 0.14 0.14 0.11 0.12 0.11 0.10 0.07 0.04 0.04 0.05 0.07 0.07 0.05 0.03 0.02 0.02 0.03 0.03 0.03 0.03 0.03
0.04 0.06 0.08 0.07 0.05 0.03 0.02 0.02 0.02 0.02 0.02 0.03 0.04 0.05 0.09 0.08 0.06 0.05 0.05 0.07 0.10 0.13 0.16 0.17 0.13 0.10 0.09 0.09 0.10 0.08 0.07 0.06 0.06 0.08 0.07 0.05 0.03 0.03 0.03 0.02 0.03 0.03 0.03
0.04 0.05 0.08 0.07 0.05 0.04 0.03 0.02 0.02 0.02 0.02 0.03 0.03 0.04 0.07 0.08 0.06 0.05 0.05 0.05 0.08 0.12 0.16 0.19 0.18 0.14 0.10 0.08 0.08 0.09 0.10 0.11 0.11 0.11 0.11 0.09 0.06 0.03 0.02 0.02 0.02 0.03 0.03
0.04 0.05 0.07 0.07 0.05 0.05 0.04 0.03 0.03 0.03 0.02 0.03 0.04 0.05 0.05 0.07 0.06 0.05 0.05 0.04 0.05 0.09 0.14 0.16 0.17 0.15 0.11 0.09 0.08 0.08 0.08 0.08 0.10 0.12 0.14 0.14 0.12 0.07 0.04 0.03 0.02 0.03 0.03
0.04 0.05 0.06 0.05 0.05 0.06 0.07 0.05 0.03 0.03 0.03 0.03 0.04 0.04 0.04 0.08 0.08 0.06 0.05 0.05 0.04 0.06 0.11 0.16 0.17 0.14 0.11 0.08 0.08 0.09 0.09 0.08 0.08 0.08 0.09 0.10 0.11 0.10 0.07 0.04 0.03 0.03 0.04
0.05 0.04 0.05 0.03 0.03 0.05 0.07 0.07 0.05 0.05 0.04 0.04 0.03 0.03 0.03 0.05 0.07 0.07 0.05 0.06 0.05 0.04 0.07 0.14 0.18 0.16 0.11 0.08 0.07 0.07 0.09 0.09 0.08 0.07 0.07 0.08 0.08 0.08 0.08 0.07 0.06 0.05 0.04
0.05 0.04 0.04 0.03 0.02 0.03 0.06 0.08 0.07 0.06 0.04 0.03 0.03 0.02 0.02 0.03 0.04 0.06 0.06 0.06 0.06 0.05 0.05 0.09 0.16 0.17 0.14 0.09 0.07 0.07 0.07 0.07 0.06 0.06 0.05 0.06 0.06 0.07 0.07 0.08 0.08 0.07 0.06
0.05 0.04 0.04 0.03 0.02 0.02 0.04 0.05 0.05 0.06 0.05 0.05 0.03 0.01 0.01 0.02 0.03 0.05 0.07 0.06 0.06 0.07 0.07 0.08 0.12 0.16 0.14 0.10 0.07 0.06 0.06 0.05 0.04 0.04 0.03 0.03 0.04 0.05 0.06 0.06 0.07 0.07 0.06
0.05 0.04 0.04 0.03 0.02 0.03 0.03 0.05 0.05 0.05 0.05 0.04 0.03 0.02 0.02 0.02 0.03 0.04 0.06 0.06 0.05 0.06 0.07 0.09 0.12 0.15 0.13 0.11 0.07 0.05 0.04 0.04 0.05 0.04 0.03 0.03 0.03 0.04 0.05 0.05 0.05 0.06 0.06
0.06 0.04 0.04 0.03 0.03 0.03 0.04 0.04 0.04 0.05 0.05 0.04 0.03 0.02 0.02 0.02 0.02 0.03 0.05 0.06 0.06 0.06 0.07 0.08 0.12 0.15 0.15 0.11 0.09 0.06 0.04 0.03 0.03 0.03 0.04 0.04 0.03 0.02 0.04 0.05 0.05 0.05 0.05
0.07 0.05 0.04 0.03 0.03 0.03 0.04 0.05 0.05 0.05 0.06 0.06 0.04 0.03 0.03 0.03 0.02 0.03 0.04 0.06 0.07 0.07 0.08 0.09 0.11 0.13 0.15 0.11 0.08 0.06 0.04 0.04 0.03 0.02 0.02 0.03 0.04 0.03 0.03 0.04 0.05 0.05 0.05
0.08 0.06 0.04 0.04 0.04 0.04 0.04 0.06 0.06 0.06 0.08 0.10 0.10 0.07 0.05 0.04 0.03 0.04 0.05 0.06 0.07 0.07 0.08 0.09 0.10 0.10 0.14 0.14 0.10 0.07 0.05 0.04 0.04 0.04 0.03 0.03 0.03 0.03 0.02 0.03 0.04 0.04 0.05
0.07 0.05 0.05 0.04 0.03 0.03 0.03 0.04 0.06 0.07 0.08 0.11 0.14 0.13 0.10 0.07 0.04 0.04 0.06 0.07 0.08 0.08 0.08 0.10 0.11 0.10 0.10 0.13 0.12 0.09 0.07 0.05 0.04 0.04 0.03 0.02 0.02 0.02 0.02 0.02 0.03 0.04 0.04
0.06 0.05 0.05 0.04 0.03 0.03 0.03 0.03 0.05 0.07 0.09 0.12 0.13 0.13 0.13 0.11 0.08 0.06 0.08 0.08 0.09 0.10 0.08 0.10 0.11 0.09 0.07 0.09 0.10 0.09 0.07 0.06 0.04 0.03 0.03 0.02 0.02 0.02 0.02 0.02 0.02 0.03 0.03
0.04 0.05 0.05 0.03 0.03 0.03 0.02 0.02 0.04 0.06 0.09 0.10 0.10 0.10 0.11 0.11 0.11 0.11 0.11 0.10 0.12 0.12 0.09 0.09 0.10 0.07 0.06 0.06 0.06 0.07 0.07 0.05 0.03 0.02 0.02 0.01 0.01 0.01 0.01 0.02 0.02 0.02 0.02
0.03 0.04 0.04 0.04 0.03 0.03 0.02 0.02 0.03 0.05 0.07 0.08 0.07 0.09 0.09 0.08 0.09 0.12 0.13 0.14 0.16 0.16 0.13 0.09 0.08 0.06 0.05 0.05 0.06 0.06 0.05 0.04 0.03 0.02 0.01 0.01 0.01 0.01 0.01 0.01 0.02 0.02 0.02
0.03 0.04 0.04 0.04 0.03 0.03 0.02 0.02 0.02 0.04 0.04 0.05 0.06 0.07 0.07 0.06 0.07 0.09 0.10 0.12 0.15 0.19 0.18 0.15 0.10 0.07 0.06 0.05 0.05 0.06 0.05 0.04 0.03 0.02 0.01 0.01 0.01 0.01 0.01 0.01 0.02 0.02 0.02
0.02 0.03 0.03 0.03 0.02 0.02 0.03 0.02 0.02 0.02 0.03 0.03 0.04 0.04 0.05 0.05 0.06 0.08 0.09 0.10 0.13 0.16 0.16 0.15 0.13 0.09 0.05 0.04 0.04 0.05 0.06 0.05 0.03 0.02 0.02 0.02 0.02 0.02 0.02 0.02 0.02 0.02 0.02
0.01 0.02 0.03 0.03 0.02 0.02 0.02 0.02 0.02 0.02 0.02 0.02 0.03 0.04 0.04 0.05 0.06 0.07 0.09 0.11 0.11 0.12 0.13 0.12 0.12 0.12 0.10 0.07 0.05 0.04 0.04 0.04 0.04 0.03 0.02 0.02 0.02 0.02 0.02 0.02 0.01 0.01 0.02
0.01 0.01 0.01 0.02 0.02 0.02 0.02 0.02 0.02 0.02 0.02 0.02 0.03 0.03 0.04 0.05 0.05 0.06 0.08 0.10 0.09 0.10 0.11 0.11 0.10 0.09 0.09 0.09 0.08 0.06 0.05 0.05 0.04 0.03 0.03 0.02 0.02 0.01 0.01 0.02 0.02 0.01 0.01
0.01 0.01 0.01 0.01 0.02 0.02 0.03 0.03 0.03 0.02 0.02 0.03 0.03 0.03 0.04 0.05 0.05 0.06 0.07 0.08 0.08 0.08 0.10 0.09 0.09 0.08 0.07 0.06 0.07 0.07 0.07 0.06 0.04 0.04 0.04 0.03 0.02 0.02 0.02 0.02 0.02 0.02 0.02
0.02 0.01 0.01 0.01 0.02 0.02 0.03 0.03 0.03 0.03 0.03 0.03 0.03 0.04 0.04 0.04 0.05 0.06 0.07 0.07 0.08 0.09 0.08 0.08 0.08 0.07 0.06 0.06 0.06 0.06 0.06 0.06 0.05 0.04 0.04 0.04 0.03 0.03 0.03 0.03 0.03 0.02 0.02
0.04 0.03 0.02 0.02 0.02 0.02 0.03 0.03 0.04 0.04 0.04 0.04 0.04 0.03 0.03 0.04 0.04 0.06 0.07 0.07 0.08 0.09 0.10 0.09 0.07 0.07 0.06 0.06 0.05 0.05 0.05 0.05 0.05 0.05 0.05 0.04 0.03 0.03 0.04 0.04 0.04 0.03 0.02
0.04 0.04 0.04 0.03 0.03 0.03 0.04 0.04 0.05 0.05 0.05 0.05 0.04 0.04 0.03 0.03 0.03 0.04 0.05 0.06 0.06 0.07 0.08 0.09 0.08 0.07 0.07 0.06 0.05 0.05 0.04 0.05 0.06 0.06 0.05 0.05 0.04 0.04 0.04 0.04 0.04 0.04 0.03
MSLP
1013.41 1014.43 1015.45 1016.41 1017.26 1017.97 1018.55 1019.01 1019.37 1019.65 1019.89 1020.11 1020.33 1020.54 1020.74 1020.93 1021.10 1021.22 1021.30 1021.33 1021.31 1021.25 1021.17 1021.09 1021.03 1021.00 1021.01 1021.05 1021.12 1021.20 1021.26 1021.31 1021.31 1021.27 1021.18 1021.06 1020.92 1020.78 1020.67 1020.60 1020.58 1020.61 1020.70
1012.80 1013.84 1014.90 1015.89 1016.78 1017.54 1018.17 1018.68 1019.10 1019.44 1019.74 1020.01 1020.26 1020.50 1020.72 1020.92 1021.09 1021.22 1021.30 1021.35 1021.37 1021.37 1021.35 1021.33 1021.32 1021.34 1021.37 1021.42 1021.48 1021.54 1021.59 1021.61 1021.60 1021.55 1021.46 1021.35 1021.22 1021.11 1021.02 1020.96 1020.96 1021.01 1021.12
1012.37 1013.41 1014.46 1015.46 1016.36 1017.14 1017.81 1018.36 1018.83 1019.23 1019.58 1019.90 1020.19 1020.45 1020.69 1020.89 1021.05 1021.18 1021.28 1021.36 1021.42 1021.46 1021.51 1021.55 1021.60 1021.65 1021.71 1021.77 1021.82 1021.86 1021.89 1021.90 1021.88 1021.83 1021.77 1021.68 1021.60 1021.52 1021.46 1021.44 1021.47 1021.55 1021.67
1012.17 1013.17 1014.19 1015.16 1016.04 1016.82 1017.49 1018.07 1018.58 1019.02 1019.42 1019.78 1020.10 1020.38 1020.63 1020.84 1021.00 1021.14 1021.26 1021.36 1021.46 1021.55 1021.65 1021.75 1021.84 1021.93 1022.01 1022.07 1022.12 1022.15 1022.17 1022.17 1022.16 1022.14 1022.11 1022.07 1022.04 1022.01 1022.00 1022.02 1022.08 1022.18 1022.32
1012.19 1013.14 1014.10 1015.01 1015.85 1016.59 1017.25 1017.83 1018.34 1018.81 1019.24 1019.63 1019.98 1020.28 1020.54 1020.76 1020.93 1021.08 1021.21 1021.34 1021.47 1021.61 1021.75 1021.90 1022.03 1022.15 1022.25 1022.32 1022.37 1022.41 1022.43 1022.45 1022.46 1022.48 1022.50 1022.52 1022.54 1022.57 1022.61 1022.66 1022.74 1022.85 1022.99
1012.41 1013.29 1014.17 1015.01 1015.77 1016.45 1017.06 1017.61 1018.11 1018.58 1019.02 1019.43 1019.80 1020.12 1020.40 1020.62 1020.82 1020.98 1021.13 1021.29 1021.45 1021.62 1021.80 1021.98 1022.14 1022.29 1022.41 1022.49 1022.56 1022.61 1022.66 1022.70 1022.76 1022.83 1022.90 1022.98 1023.07 1023.15 1023.22 1023.30 1023.40 1023.50 1023.63
1012.80 1013.59 1014.38 1015.11 1015.78 1016.38 1016.91 1017.41 1017.87 1018.32 1018.75 1019.16 1019.53 1019.87 1020.16 1020.41 1020.62 1020.81 1020.98 1021.16 1021.35 1021.55 1021.76 1021.97 1022.16 1022.33 1022.46 1022.58 1022.67 1022.75 1022.83 1022.93 1023.04 1023.16 1023.30 1023.44 1023.58 1023.70 1023.80 1023.90 1023.99 1024.08 1024.18
1013.29 1013.99 1014.66 1015.28 1015.84 1016.33 1016.77 1017.18 1017.59 1017.99 1018.39 1018.79 1019.17 1019.51 1019.82 1020.09 1020.32 1020.53 1020.73 1020.94 1021.16 1021.39 1021.62 1021.85 1022.06 1022.25 1022.41 1022.56 1022.68 1022.81 1022.94 1023.09 1023.26 1023.44 1023.64 1023.83 1024.01 1024.16 1024.29 1024.39 1024.47 1024.54 1024.61
1013.84 1014.43 1014.98 1015.47 1015.90 1016.27 1016.60 1016.92 1017.25 1017.59 1017.96 1018.33 1018.69 1019.04 1019.36 1019.64 1019.90 1020.14 1020.37 1020.61 1020.85 1021.11 1021.36 1021.62 1021.85 1022.07 1022.26 1022.44 1022.61 1022.78 1022.96 1023.16 1023.39 1023.63 1023.88 1024.11 1024.32 1024.50 1024.64 1024.74 1024.81 1024.86 1024.91
1014.39 1014.86 1015.28 1015.63 1015.92 1016.16 1016.38 1016.60 1016.85 1017.13 1017.44 1017.78 1018.13 1018.47 1018.79 1019.09 1019.37 1019.64 1019.90 1020.17 1020.44 1020.72 1021.01 1021.29 1021.55 1021.80 1022.02 1022.24 1022.45 1022.66 1022.89 1023.14 1023.41 1023.70 1023.98 1024.25 1024.48 1024.68 1024.82 1024.93 1025.00 1025.05 1025.08
1014.91 1015.24 1015.52 1015.73 1015.88 1016.00 1016.11 1016.23 1016.40 1016.61 1016.87 1017.17 1017.49 1017.81 1018.14 1018.45 1018.74 1019.03 1019.32 1019.62 1019.93 1020.24 1020.56 1020.87 1021.17 1021.45 1021.71 1021.96 1022.21 1022.46 1022.73 1023.02 1023.33 1023.64 1023.94 1024.22 1024.47 1024.68 1024.84 1024.95 1025.03 1025.09 1025.14
1015.37 1015.55 1015.68 1015.75 1015.77 1015.78 1015.79 1015.82 1015.92 1016.07 1016.27 1016.53 1016.81 1017.11 1017.42 1017.73 1018.03 1018.34 1018.66 1018.98 1019.32 1019.67 1020.03 1020.38 1020.71 1021.03 1021.34 1021.62 1021.91 1022.20 1022.49 1022.80 1023.12 1023.44 1023.76 1024.05 1024.30 1024.52 1024.69 1024.82 1024.93 1025.01 1025.08
1015.75 1015.78 1015.76 1015.70 1015.61 1015.51 1015.43 1015.40 1015.42 1015.52 1015.67 1015.87 1016.12 1016.38 1016.66 1016.95 1017.25 1017.56 1017.90 1018.25 1018.62 1019.02 1019.41 1019.81 1020.19 1020.55 1020.89 1021.22 1021.53 1021.85 1022.16 1022.48 1022.81 1023.13 1023.44 1023.73 1023.99 1024.22 1024.41 1024.56 1024.69 1024.81 1024.92
1016.06 1015.94 1015.79 1015.60 1015.41 1015.22 1015.07 1014.97 1014.94 1014.98 1015.07 1015.22 1015.41 1015.62 1015.86 1016.11 1016.39 1016.70 1017.04 1017.41 1017.82 1018.25 1018.69 1019.13 1019.56 1019.97 1020.36 1020.72 1021.07 1021.40 1021.73 1022.05 1022.38 1022.70 1023.01 1023.29 1023.56 1023.79 1023.99 1024.17 1024.33 1024.49 1024.63
1016.30 1016.05 1015.77 1015.48 1015.20 1014.94 1014.73 1014.58 1014.49 1014.46 1014.49 1014.57 1014.68 1014.83 1015.00 1015.20 1015.44 1015.73 1016.06 1016.45 1016.88 1017.35 1017.83 1018.33 1018.81 1019.27 1019.70 1020.10 1020.48 1020.83 1021.17 1021.51 1021.84 1022.15 1022.46 1022.74 1023.01 1023.25 1023.47 1023.67 1023.85 1024.04 1024.21
1016.47 1016.11 1015.73 1015.36 1015.00 1014.69 1014.42 1014.21 1014.06 1013.96 1013.91 1013.90 1013.93 1013.98 1014.07 1014.21 1014.39 1014.65 1014.97 1015.35 1015.80 1016.30 1016.83 1017.37 1017.90 1018.41 1018.89 1019.34 1019.75 1020.13 1020.49 1020.84 1021.18 1021.50 1021.81 1022.10 1022.37 1022.62 1022.84 1023.06 1023.26 1023.46 1023.66
1016.58 1016.14 1015.69 1015.25 1014.84 1014.47 1014.15 1013.88 1013.66 1013.47 1013.33 1013.21 1013.13 1013.08 1013.07 1013.12 1013.25 1013.46 1013.76 1014.14 1014.61 1015.13 1015.70 1016.29 1016.86 1017.42 1017.94 1018.43 1018.88 1019.29 1019.69 1020.06 1020.41 1020.75 1021.07 1021.38 1021.65 1021.91 1022.14 1022.36 1022.57 1022.77 1022.97
1016.62 1016.13 1015.64 1015.16 1014.71 1014.29 1013.92 1013.57 1013.26 1012.98 1012.72 1012.49 1012.28 1012.12 1012.01 1011.98 1012.04 1012.21 1012.48 1012.86 1013.34 1013.89 1014.49 1015.11 1015.73 1016.33 1016.89 1017.42 1017.90 1018.36 1018.78 1019.19 1019.57 1019.94 1020.28 1020.60 1020.90 1021.16 1021.40 1021.61 1021.82 1022.01 1022.19
1016.58 1016.07 1015.56 1015.06 1014.59 1014.13 1013.69 1013.27 1012.87 1012.47 1012.09 1011.73 1011.41 1011.13 1010.93 1010.82 1010.83 1010.96 1011.22 1011.60 1012.09 1012.66 1013.29 1013.94 1014.59 1015.22 1015.82 1016.38 1016.90 1017.39 1017.85 1018.29 1018.71 1019.11 1019.48 1019.83 1020.14 1020.41 1020.66 1020.86 1021.05 1021.22 1021.38
1016.42 1015.92 1015.42 1014.93 1014.43 1013.94 1013.45 1012.95 1012.45 1011.95 1011.45 1010.98 1010.54 1010.17 1009.90 1009.73 1009.70 1009.82 1010.07 1010.46 1010.97 1011.56 1012.21 1012.89 1013.56 1014.21 1014.83 1015.41 1015.96 1016.47 1016.96 1017.43 1017.89 1018.32 1018.73 1019.10 1019.43 1019.72 1019.96 1020.16 1020.32 1020.47 1020.60
1016.14 1015.67 1015.19 1014.71 1014.22 1013.70 1013.16 1012.59 1012.01 1011.41 1010.82 1010.25 1009.73 1009.29 1008.97 1008.77 1008.73 1008.85 1009.13 1009.54 1010.07 1010.69 1011.36 1012.04 1012.73 1013.39 1014.01 1014.60 1015.15 1015.68 1016.19 1016.69 1017.17 1017.63 1018.06 1018.46 1018.81 1019.10 1019.34 1019.53 1019.68 1019.80 1019.90
1015.71 1015.28 1014.84 1014.39 1013.90 1013.37 1012.80 1012.18 1011.53 1010.86 1010.19 1009.56 1009.00 1008.53 1008.19 1008.01 1007.99 1008.14 1008.45 1008.90 1009.46 1010.09 1010.78 1011.47 1012.15 1012.81 1013.42 1014.00 1014.55 1015.08 1015.60 1016.10 1016.59 1017.07 1017.52 1017.93 1018.29 1018.60 1018.84 1019.02 1019.16 1019.26 1019.33
1015.15 1014.76 1014.36 1013.94 1013.46 1012.93 1012.34 1011.69 1011.01 1010.30 1009.60 1008.95 1008.37 1007.91 1007.60 1007.45 1007.48 1007.68 1008.04 1008.53 1009.13 1009.79 1010.48 1011.17 1011.85 1012.48 1013.08 1013.64 1014.17 1014.69 1015.19 1015.69 1016.18 1016.66 1017.11 1017.53 1017.89 1018.20 1018.45 1018.62 1018.75 1018.83 1018.89
1014.48 1014.13 1013.76 1013.36 1012.90 1012.38 1011.79 1011.14 1010.44 1009.72 1009.03 1008.39 1007.85 1007.44 1007.18 1007.10 1007.20 1007.47 1007.88 1008.42 1009.05 1009.73 1010.42 1011.11 1011.76 1012.37 1012.94 1013.47 1013.97 1014.46 1014.94 1015.42 1015.90 1016.37 1016.82 1017.23 1017.59 1017.90 1018.14 1018.31 1018.43 1018.51 1018.55
1013.76 1013.41 1013.06 1012.68 1012.23 1011.72 1011.14 1010.50 1009.82 1009.14 1008.48 1007.90 1007.42 1007.08 1006.91 1006.91 1007.09 1007.42 1007.90 1008.48 1009.14 1009.82 1010.52 1011.19 1011.82 1012.40 1012.93 1013.43 1013.91 1014.36 1014.82 1015.27 1015.73 1016.17 1016.60 1017.00 1017.35 1017.65 1017.88 1018.05 1018.16 1018.23 1018.26
1013.03 1012.67 1012.30 1011.91 1011.48 1010.97 1010.41 1009.80 1009.16 1008.53 1007.94 1007.44 1007.05 1006.81 1006.73 1006.82 1007.08 1007.48 1008.01 1008.62 1009.29 1009.99 1010.67 1011.32 1011.92 1012.48 1012.98 1013.46 1013.90 1014.33 1014.75 1015.18 1015.61 1016.03 1016.43 1016.81 1017.14 1017.42 1017.64 1017.80 1017.90 1017.96 1017.98
Thickness
5535 5536 5535 5534 5535 5537 5538 5540 5542 5546 5550 5555 5559 5564 5569 5575 5580 5585 5589 5593 5596 5600 5604 5608 5610 5612 5615 5616 5616 5616 5614 5613 5614 5612 5611 5612 5615 5618 5620 5622 5624 5625 5626
5525 5525 5525 5524 5525 5527 5529 5531 5533 5537 5540 5544 5548 5553 5559 5565 5570 5575 5580 5584 5587 5591 5595 5599 5602 5604 5606 5607 5607 5608 5606 5605 5607 5606 5604 5602 5604 5608 5612 5614 5616 5617 5619
5514 5514 5515 5514 5514 5518 5520 5522 5524 5527 5531 5534 5538 5543 5548 5554 5559 5564 5569 5574 5578 5582 5585 5589 5594 5596 5598 5599 5600 5600 5600 5599 5599 5601 5600 5598 5599 5599 5602 5605 5608 5610 5612
5504 5504 5505 5505 5506 5509 5511 5512 5515 5518 5521 5524 5528 5532 5536 5542 5547 5552 5559 5564 5568 5572 5575 5579 5584 5587 5590 5591 5592 5593 5593 5593 5592 5593 5595 5597 5597 5594 5593 5596 5600 5602 5604
5491 5492 5494 5496 5498 5500 5501 5503 5505 5508 5511 5514 5517 5521 5525 5531 5536 5541 5547 5552 5557 5561 5566 5569 5574 5578 5581 5583 5584 5584 5585 5585 5586 5586 5587 5589 5590 5591 5589 5588 5590 5593 5596
5478 5480 5482 5485 5487 5489 5491 5492 5495 5498 5501 5503 5506 5510 5514 5519 5524 5529 5535 5541 5546 5551 5556 5560 5564 5568 5571 5573 5575 5576 5577 5578 5578 5579 5580 5581 5583 5584 5585 5583 5583 5584 5588
5466 5468 5470 5473 5475 5477 5479 5481 5484 5488 5491 5493 5496 5500 5504 5508 5513 5518 5523 5529 5535 5540 5546 5550 5554 5558 5561 5564 5566 5567 5568 5569 5570 5571 5572 5574 5576 5577 5580 5578 5576 5577 5579
5453 5456 5457 5459 5463 5467 5469 5471 5474 5477 5480 5483 5486 5490 5493 5498 5502 5507 5513 5518 5524 5530 5536 5541 5544 5549 5552 5554 5557 5559 5560 5561 5562 5563 5565 5566 5568 5570 5571 5572 5571 5569 5570
5442 5443 5446 5448 5451 5455 5458 5461 5465 5468 5471 5474 5476 5479 5483 5487 5491 5497 5503 5509 5514 5520 5526 5531 5535 5539 5543 5546 5547 5549 5551 5552 5554 5555 5556 5558 5560 5561 5563 5564 5566 5565 5564
5431 5432 5434 5438 5441 5445 5448 5452 5456 5459 5461 5464 5466 5469 5472 5476 5481 5486 5492 5498 5504 5510 5515 5521 5526 5530 5533 5537 5538 5540 5542 5543 5545 5546 5547 5549 5551 5552 5554 5556 5558 5560 5560
5420 5421 5423 5427 5432 5436 5439 5442 5446 5450 5452 5454 5456 5459 5462 5465 5470 5475 5482 5488 5494 5500 5506 5512 5516 5521 5524 5527 5529 5531 5532 5534 5536 5538 5539 5541 5543 5543 5545 5547 5549 5551 5553
5411 5412 5414 5418 5422 5425 5429 5433 5437 5440 5442 5444 5447 5449 5452 5456 5460 5466 5471 5478 5484 5490 5497 5502 5506 5511 5515 5519 5520 5522 5524 5526 5527 5529 5530 5531 5533 5534 5535 5537 5540 5542 5543
5402 5403 5404 5407 5410 5413 5418 5423 5426 5429 5433 5436 5438 5441 5444 5447 5451 5456 5461 5468 5474 5481 5487 5492 5497 5501 5505 5508 5511 5513 5515 5517 5519 5520 5521 5522 5523 5524 5526 5528 5530 5532 5534
5391 5392 5392 5395 5398 5402 5407 5412 5416 5419 5424 5427 5430 5433 5436 5439 5443 5447 5452 5459 5465 5472 5477 5483 5488 5491 5496 5499 5502 5503 5505 5507 5508 5510 5511 5513 5514 5515 5516 5518 5520 5521 5522
5380 5381 5382 5383 5386 5391 5396 5400 5405 5409 5414 5418 5421 5425 5428 5431 5435 5439 5444 5450 5456 5462 5468 5473 5477 5481 5485 5489 5491 5492 5494 5496 5497 5498 5501 5502 5504 5506 5507 5509 5510 5511 5511
5369 5370 5371 5372 5374 5378 5383 5388 5394 5398 5404 5409 5414 5418 5421 5424 5428 5432 5437 5442 5447 5452 5457 5463 5466 5470 5475 5479 5481 5482 5484 5485 5486 5488 5489 5491 5493 5494 5497 5499 5501 5503 5503
5358 5358 5359 5360 5363 5366 5371 5376 5382 5388 5394 5399 5404 5409 5414 5418 5421 5425 5429 5433 5438 5442 5447 5452 5455 5459 5463 5467 5469 5470 5473 5474 5476 5478 5479 5480 5482 5483 5485 5487 5490 5492 5493
5348 5348 5350 5351 5354 5357 5362 5367 5373 5378 5384 5389 5394 5400 5405 5410 5414 5417 5421 5425 5429 5433 5437 5441 5444 5448 5453 5456 5458 5460 5461 5462 5465 5467 5469 5470 5471 5473 5475 5476 5478 5480 5482
5337 5338 5340 5343 5345 5348 5352 5357 5364 5369 5374 5378 5383 5389 5395 5400 5405 5408 5412 5416 5419 5424 5427 5431 5435 5439 5443 5446 5448 5448 5449 5451 5454 5456 5458 5460 5461 5463 5465 5466 5468 5469 5471
5328 5330 5332 5335 5337 5340 5344 5348 5354 5359 5364 5368 5374 5379 5386 5391 5396 5400 5404 5407 5411 5415 5419 5423 5426 5429 5433 5436 5438 5438 5440 5441 5443 5445 5447 5450 5452 5453 5454 5456 5458 5459 5461
5319 5322 5324 5326 5328 5332 5335 5340 5345 5350 5355 5360 5366 5371 5377 5382 5387 5392 5395 5399 5403 5407 5411 5415 5417 5420 5424 5427 5429 5429 5431 5433 5433 5435 5437 5439 5441 5443 5444 5446 5448 5451 5451
5310 5312 5315 5317 5320 5323 5326 5330 5335 5341 5347 5351 5358 5363 5369 5374 5380 5383 5387 5391 5394 5398 5401 5405 5408 5410 5413 5416 5419 5420 5422 5424 5425 5427 5429 5430 5431 5432 5434 5436 5439 5440 5440
5301 5304 5306 5309 5312 5314 5317 5320 5326 5332 5338 5343 5349 5354 5360 5365 5370 5373 5378 5381 5385 5388 5392 5396 5398 5401 5403 5405 5407 5410 5412 5413 5415 5417 5419 5420 5421 5421 5423 5426 5427 5428 5429
5292 5295 5297 5299 5302 5306 5309 5312 5317 5322 5328 5334 5339 5345 5351 5355 5360 5364 5368 5372 5375 5378 5381 5385 5388 5390 5392 5395 5397 5399 5401 5402 5404 5406 5408 5409 5409 5410 5413 5415 5415 5416 5418
5284 5287 5288 5290 5294 5298 5301 5305 5309 5314 5319 5325 5330 5336 5341 5345 5350 5354 5358 5361 5365 5368 5371 5374 5377 5380 5383 5386 5389 5391 5392 5393 5395 5396 5396 5396 5397 5399 5401 5404 5405 5405 5406
5276 5278 5280 5283 5286 5290 5294 5297 5301 5306 5311 5317 5321 5326 5331 5335 5340 5344 5348 5351 5355 5359 5362 5365 5368 5371 5375 5377 5379 5381 5382 5384 5385 5385 5385 5386 5387 5389 5390 5392 5392 5393 5393